Regional Weather Roundup
Issued by NWS

Home | Current Version | Previous Version | Graphics & Text | Print | Product List | Glossary On
Versions: 1 2 3 4 5 6 7 8 9 10 11 12 13 14 15 16 17 18 19 20 21 22 23 24 25 26 27 28 29 30 31 32 33 34 35 36 37 38 39 40 41 42 43 44 45 46 47 48 49 50
000
ASUS43 KLOT 292103
RWRIL

ILLINOIS REGIONAL WEATHER ROUNDUP
NATIONAL WEATHER SERVICE CHICAGO/ROMEOVILLE IL
400 PM CDT WED MAR 29 2017

NOTE: "FAIR" INDICATES FEW OR NO CLOUDS BELOW 12,000 FEET WITH NO
SIGNIFICANT WEATHER AND/OR OBSTRUCTIONS TO VISIBILITY.

* THESE STATIONS ARE NOT UNDER NWS QUALITY CONTROL. THEY ALSO MAY NOT
  REPORT WEATHER SUCH AS PRECIPITATION OR FOG.

ILZ001-002-007-009-015-016-024-292200-
NORTHWEST ILLINOIS

CITY           SKY/WX    TMP DP  RH WIND       PRES   REMARKS
MOLINE         CLOUDY    48  42  80 E23       29.97F
STERLING*      LGT RAIN  48  41  76 E17G30    30.06R
SAVANNA*       RAIN      48  37  66 E20       30.05F
$$

ILZ003-004-008-010-011-017-018-292200-
NORTH CENTRAL ILLINOIS

CITY           SKY/WX    TMP DP  RH WIND       PRES   REMARKS
ROCKFORD       CLOUDY    49  34  56 E20G28    30.11F
FREEPORT*      CLOUDY    47  35  61 E20G28    30.11F
ROCHELLE*      CLOUDY    47  37  68 E22       30.09F
DE KALB*       CLOUDY    46  36  67 E21G30    30.10F
PERU*          CLOUDY    49  40  70 E20G30    30.03F
$$

ILZ005-006-012>014-019>023-292200-
NORTHEAST ILLINOIS

CITY           SKY/WX    TMP DP  RH WIND       PRES   REMARKS
CHICAGO-OHARE  CLOUDY    47  34  60 NE16      30.15F
CHICAGO-MIDWAY LGT RAIN  49  35  58 NE20G25   30.15F
AURORA         CLOUDY    48  37  65 E17       30.11F
LANSING*       CLOUDY    46  38  74 NE9       30.18R
JOLIET*        CLOUDY    47  40  75 E15G22    30.11F
WAUKEGAN       CLOUDY    41  35  79 NE8       30.20F
DUPAGE AIRPORT CLOUDY    46  37  71 E16       30.11F
WHEELING       CLOUDY    43  36  76 E13G22    30.18F
MORRIS*        LGT RAIN  47  39  73 E15G22    30.07F
NORTHERLY ISL    N/A     42  36  79 MISG        N/A
$$

LMZ740>746-292200-
SOUTHERN LAKE MICHIGAN

STATION/POSITION SKY/WX   TEMP    WIND        PRES    VSBY  WAVE
                          AIR SEA DIR/SP/G                  HT/PER
                          (F)     (DEG/KT/KT) (MB)    (MI)  (FT/S)
HARRISON CRIB              41      30/ 16/ 17   N/A
BURNHAM HARBOR             41      10/  7/ 12   N/A
CALUMET HARBOR             42      10/ 12/ 16 1021.7R
BURNS HARBOR               42      70/  9/ 11 1022.7S
MICHIGAN CITY              42      20/ 12/ 13   N/A
$$

ILZ025>027-034>036-040-047-049-050-058-095>099-292200-
WEST-CENTRAL ILLINOIS

CITY           SKY/WX    TMP DP  RH WIND       PRES   REMARKS
QUINCY         CLOUDY    52  48  86 E22G33    29.84F
GALESBURG*     DRIZZLE   48  43  82 E22G29    29.93F
MACOMB*        LGT RAIN  49  46  88 E24       29.94S
JACKSONVILLE*  CLOUDY    52  48  86 E24G31    29.91F
PITTSFIELD*    CLOUDY    54  50  87 E15G25    29.89F
$$

ILZ028>032-037-038-041>044-048-051>054-059>061-292200-
CENTRAL ILLINOIS

CITY           SKY/WX    TMP DP  RH WIND       PRES   REMARKS
PONTIAC        CLOUDY    52  44  72 E23G29    30.04F
BLOOMINGTON    CLOUDY    51  44  77 E29G35    29.99F
DECATUR        CLOUDY    53  48  83 E20G28    29.96F
PEORIA         CLOUDY    51  42  71 E16G31    29.96F
LINCOLN*       CLOUDY    53  49  85 E18G28    29.95F
SPRINGFIELD    CLOUDY    54  48  80 E21G28    29.93F
TAYLORVILLE    NOT AVBL
$$

ILZ033-039-045-046-055>057-062-063-292200-
EAST-CENTRAL ILLINOIS

CITY           SKY/WX    TMP DP  RH WIND       PRES   REMARKS
CHAMPAIGN      CLOUDY    54  45  71 E18       30.01F
RANTOUL*       CLOUDY    55  47  74 E21       30.03F
MATTOON        CLOUDY    54  49  83 E12       29.98F
PARIS*         CLOUDY    58  47  66 NE16      30.04F
$$

ILZ079-100>102-292200-
SOUTHWEST ILLINOIS

CITY           SKY/WX    TMP DP  RH WIND       PRES   REMARKS
ALTON          CLOUDY    59  52  77 E13G22    29.89S
BELLEVILLE     CLOUDY    66  55  69 E18       29.86F
CAHOKIA*       CLOUDY    67  54  63 E14G25    29.86F
SPARTA*        PTSUNNY   67  57  69 E17       29.88F
$$

ILZ064>066-069>071-074>076-080>082-084>086-088>090-092>094-292200-
SOUTH-CENTRAL ILLINOIS

CITY           SKY/WX    TMP DP  RH WIND       PRES   REMARKS
CARBONDALE     PTSUNNY   70  58  65 E12       29.87S
CAIRO*         CLOUDY    74  61  62 SE8       29.86S
EFFINGHAM*     CLOUDY    59  51  75 NE16G23   29.97F
MARION         MOSUNNY   77  57  50 SE16G22   29.88F
MT. VERNON     CLOUDY    68  54  60 E15G24    29.90F
CENTRALIA*     CLOUDY    67  55  64 E15G22    29.89F
SALEM*         CLOUDY    67  53  61 E10G21    29.91F
$$

ILZ067-068-072-073-078-083-087-091-292200-
SOUTHEAST ILLINOIS

CITY           SKY/WX    TMP DP  RH WIND       PRES   REMARKS
LAWRENCEVILLE  MOSUNNY   64  52  64 E17       29.98F
FLORA*         CLOUDY    65  53  65 E16       29.94F
FAIRFIELD*     CLOUDY    67  54  63 E9        29.91F
HARRISBURG*    CLOUDY    70  58  65 E17G23    29.89F
ROBINSON*      PTSUNNY   59  49  70 E13       30.01F
CARMI*         CLOUDY    68  55  62 E16       29.91F
$$

ABBREVIATIONS USED IN REMARKS
   TC - TEMPERATURE IN CELSIUS
  WCI - WIND CHILL INDEX
   HX - HEAT INDEX
  VSB - VISIBILITY
$$





USA.gov is the U.S. government's official web portal to all federal, state and local government web resources and services.